Flag for Canada Weather past 2 weeks in Iqaluit, Nunavut, Canada

Now
34 °F

Drizzle. Mostly cloudy.


Feels Like: 22 °F
Forecast: 38 / 46 °F
Wind: 20 mph from Southeast

Location: Iqaluit

Current Time: Jul 8, 2015 at 3:22:08 AM

Latest Report: Jul 8, 2015 at 3:00 AM


Visibility: 15 mi

Pressure: 29.64 "Hg

Humidity: 93%

Dew point: 32 °F

Location of IqaluitLocation

Historic Weather in Iqaluit — Graph

°F

Iqaluit temperature yesterday

Maximum temperature yesterday: 37 °F (at 1:00 AM)
Minimum temperature yesterday: 34 °F (at 11:00 PM)
Average temperature yesterday: 36 °F

Past Weeks' High & Low Weather Summary

 TemperatureHumidityPressure
High46 °F (Jul 2, 2:00 PM)100% (Jun 24, 11:00 PM)30.15 "Hg (Jun 24, 11:00 PM)
Low32 °F (Jun 27, 10:02 PM)66% (Jul 2, 1:00 PM)29.63 "Hg (Jul 7, 3:00 PM)
Average37 °F90%29.89 "Hg
* Reported Jun 23 2:00 AM — Jul 8 2:00 AM, Iqaluit, Weather by CustomWeather, © 2015

Note: Actual official high and low records may vary slightly from our data, if they occured in-between our weather recording intervals... More about our weather records

Advertising

Iqaluit weather history for previous 24 hours

 ConditionsComfort  
Time TempWeatherWind HumidityBarometerVisibility
2:00 AM
Wed, Jul 8
36 °FLow clouds.16 mph93%29.64 "Hg20 mi
1:00 AM34 °FLow clouds.23 mph93%29.63 "Hg20 mi
12:00 AM34 °FLow clouds.25 mph93%29.64 "Hg20 mi
11:48 PM
Tue, Jul 7
34 °FLow clouds.22 mph93%29.64 "Hg20 mi
11:00 PM34 °FLow clouds.23 mph93%29.65 "Hg20 mi
10:00 PM36 °FLow clouds.26 mph93%29.64 "Hg20 mi
9:00 PM36 °FLow clouds.24 mph93%29.65 "Hg30 mi
8:00 PM36 °FLow clouds.23 mph93%29.64 "Hg30 mi
7:00 PM36 °FLow clouds.25 mph93%29.63 "Hg30 mi
6:04 PM36 °FLow clouds.24 mph93%29.63 "Hg25 mi
5:00 PM36 °FLight rain. Low clouds.22 mph93%29.63 "Hg20 mi
4:00 PM36 °FLight rain. Mostly cloudy.23 mph93%29.63 "Hg15 mi
3:00 PM36 °FLight rain. Mostly cloudy.20 mph93%29.63 "Hg5 mi
2:00 PM36 °FMostly cloudy.14 mph93%29.64 "Hg8 mi
1:00 PM36 °FLight rain. Low clouds.15 mph93%29.65 "Hg15 mi
12:00 PM36 °FLight rain. Mostly cloudy.18 mph93%29.67 "Hg6 mi
11:00 AM36 °FLight rain. Mostly cloudy.20 mph93%29.68 "Hg15 mi
10:03 AM36 °FLight rain. Fog.20 mph93%29.69 "Hg12 mi
9:00 AM36 °FLight rain. Fog.21 mph93%29.71 "Hg3 mi
8:00 AM36 °FLight rain. Fog.18 mph93%29.72 "Hg4 mi
7:00 AM36 °FLight rain. Fog.20 mph93%29.73 "Hg5 mi
6:00 AM37 °FLight rain. Fog.24 mph93%29.74 "Hg2 mi
5:00 AM36 °FDrizzle. Fog.20 mph93%29.75 "Hg3 mi
4:00 AM36 °FDrizzle. Fog.14 mph100%29.76 "Hg1 mi
3:00 AM37 °FLight rain. Fog.21 mph93%29.75 "Hg2 mi
Weather by CustomWeather, © 2015

See weather overviewHow to use our weather pages